KIPP (43157 NORAD) Tracking and Keplerian Element Data

This shows tracking and keplerian element data for the satellite.

Feedback or suggestion? Click here.




ElementValue
Catalog43157
NameKIPP
Epoch Orbit12113
Epoch Day91.8240959
Epoch Year2020
RAAN162.6801
Inclination97.461
Eccentricity0.0016869
Argument of Perigee54.3737
Mean Anonmoly305.9061
Mean Motion15.10859578
Decay Rate1.013E-05
L11 43157U 18008C 20091.82409590 .00001013 00000-0 64485-4 0 9992
L22 43157 97.4610 162.6801 0016869 54.3737 305.9061 15.10859578121133

Live tracking and technical data element details for KIPP (NORAD 43157). KIPP can be tracked NOW for your location showing map with azimuth and elevation plus other details from your city location.

Track the satellite on the map from your city or location and see movement details for azimuth, elevation, latitude, longitude, range, height, and movement on the map or in text.







IsCatalogInMostPopularTable: catalog: 43157, numindb: 336
Update: records affected: 1



GetName: 43157 KIPP

Hit Count: updated at: Thu, 02 Apr 2020 04:04:29 GMT